Weather History for Orr, MN

Change the Weather History Date:

Saturday, January 26, 2013

  Actual Average Record
Temperature  
Mean Temperature -4 °F -  
Max Temperature 15 °F 16 °F 44 °F (2006)
Min Temperature -23 °F 0 °F -40 °F (1997)
Degree Days  
Heating Degree Days 69    
Moisture  
Dew Point -8 °F    
Average Humidity 71    
Maximum Humidity 85    
Minimum Humidity 58    
Precipitation  
Precipitation 0.00 in - - ()
Sea Level Pressure  
Sea Level Pressure 30.15 in    
Wind  
Wind Speed 3 mph (SSE)    
Max Wind Speed 12 mph    
Max Gust Speed 16 mph    
Visibility 10 miles    
Events Snow    
Averages and records for this station are not official NWS values.
T = Trace of Precipitation, MM = Missing Value Source: NWS Daily Summary

Daily Weather History Graph

Daily Weather History Graph

Search for Another Location

Airport:

Trip Planner

Search our weather history database for the weather conditions in past years. The results will help you decide how hot, cold, wet, or windy it might be!

Date:

Astronomy

Jan. 26, 2013 Rise Set
Actual Time 7:46 AM CST 5:02 PM CST
Civil Twilight 7:12 AM CST 5:36 PM CST
Nautical Twilight 6:34 AM CST 6:14 PM CST
Astronomical Twilight 5:57 AM CST 6:50 PM CST
Moon 5:01 PM CST (1/26) 7:01 AM CST (1/26)
Length of Visible Light 10h 24m
Length of Day
9h 16m
Full, 100% of the Moon is Illuminated
Jan 26
Full
Jan 26
Full
Feb 3
Last Quarter
Feb 10
New
Feb 17
First Quarter

Hourly Weather History & Observations

Time (CST) Temp. Windchill Dew Point Humidity Pressure Visibility Wind Dir Wind Speed Gust Speed Precip Events Conditions
12:15 AM -11.2 °F - -16.6 °F 77% 30.21 in 10.0 mi Calm Calm - N/A   Clear
12:33 AM -11.2 °F - -16.6 °F 77% 30.21 in 10.0 mi Calm Calm - N/A   Clear
12:55 AM -11.2 °F - -16.6 °F 77% 30.21 in 10.0 mi Calm Calm - N/A   Clear
1:13 AM -14.8 °F - -20.2 °F 77% 30.21 in 10.0 mi Calm Calm - N/A   Clear
1:33 AM -13.0 °F - -18.4 °F 77% 30.21 in 10.0 mi Calm Calm - N/A   Clear
1:53 AM -13.0 °F - -18.4 °F 77% 30.21 in 10.0 mi Calm Calm - N/A   Clear
2:13 AM -13.0 °F - -18.4 °F 77% 30.22 in 10.0 mi Calm Calm - N/A   Clear
2:33 AM -14.8 °F - -20.2 °F 77% 30.22 in 10.0 mi Calm Calm - N/A   Clear
2:53 AM -14.8 °F - -20.2 °F 77% 30.21 in 10.0 mi Calm Calm - N/A   Clear
3:13 AM -18.4 °F - -23.8 °F 76% 30.21 in 10.0 mi Calm Calm - N/A   Clear
3:33 AM -20.2 °F - -25.6 °F 76% 30.21 in 10.0 mi Calm Calm - N/A   Clear
3:53 AM -20.2 °F - -25.6 °F 76% 30.21 in 10.0 mi Calm Calm - N/A   Clear
4:13 AM -16.6 °F - -23.8 °F 70% 30.19 in 10.0 mi Calm Calm - N/A   Clear
4:35 AM -20.2 °F - -27.4 °F 69% 30.19 in 10.0 mi Calm Calm - N/A   Clear
4:53 AM -22.0 °F - -27.4 °F 76% 30.19 in 10.0 mi Calm Calm - N/A   Clear
5:13 AM -20.2 °F - -25.6 °F 76% 30.19 in 10.0 mi Calm Calm - N/A   Clear
5:35 AM -22.0 °F - -27.4 °F 76% 30.20 in 10.0 mi Calm Calm - N/A   Clear
5:56 AM -20.2 °F - -27.4 °F 69% 30.19 in 10.0 mi Calm Calm - N/A   Clear
6:13 AM -20.2 °F - -27.4 °F 69% 30.20 in 10.0 mi Calm Calm - N/A   Clear
6:33 AM -23.8 °F - -29.2 °F 76% 30.20 in 10.0 mi Calm Calm - N/A   Clear
6:53 AM -22.0 °F - -29.2 °F 69% 30.21 in 10.0 mi Calm Calm - N/A   Clear
7:14 AM -23.8 °F - -29.2 °F 76% 30.21 in 10.0 mi Calm Calm - N/A   Clear
7:33 AM -23.8 °F - -31.0 °F 69% 30.21 in 10.0 mi Calm Calm - N/A   Clear
7:53 AM -22.0 °F - -29.2 °F 69% 30.21 in 10.0 mi Calm Calm - N/A   Clear
8:13 AM -14.8 °F - -20.2 °F 77% 30.20 in 10.0 mi Calm Calm - N/A   Clear
8:35 AM -11.2 °F -20.6 °F -16.6 °F 77% 30.21 in 10.0 mi SE 3.5 mph - N/A   Scattered Clouds
8:53 AM -11.2 °F - -16.6 °F 77% 30.21 in 10.0 mi Calm Calm - N/A   Overcast
9:13 AM -9.4 °F - -14.8 °F 77% 30.22 in 10.0 mi Calm Calm - N/A   Overcast
9:34 AM -5.8 °F - -11.2 °F 77% 30.22 in 10.0 mi Calm Calm - N/A   Mostly Cloudy
9:53 AM -5.8 °F - -9.4 °F 84% 30.21 in 10.0 mi Calm Calm - N/A   Scattered Clouds
10:13 AM -2.2 °F - -7.6 °F 78% 30.21 in 10.0 mi Calm Calm - N/A   Scattered Clouds
11:01 AM 1.4 °F -6.2 °F -2.2 °F 85% 30.22 in 10.0 mi SSE 3.5 mph - N/A   Mostly Cloudy
11:13 AM 3.2 °F -6.2 °F -2.2 °F 78% 30.21 in 10.0 mi SSE 4.6 mph - N/A   Overcast
11:33 AM 5.0 °F -5.6 °F -0.4 °F 78% 30.20 in 10.0 mi SSE 5.8 mph - N/A   Mostly Cloudy
11:53 AM 6.8 °F -6.9 °F -0.4 °F 72% 30.19 in 10.0 mi SE 9.2 mph - N/A   Mostly Cloudy
12:15 PM 6.8 °F -3.5 °F -0.4 °F 72% 30.19 in 10.0 mi SSE 5.8 mph - N/A   Scattered Clouds
12:35 PM 6.8 °F -3.5 °F -0.4 °F 72% 30.18 in 10.0 mi SSE 5.8 mph - N/A   Scattered Clouds
12:53 PM 8.6 °F 0.1 °F 1.4 °F 73% 30.17 in 10.0 mi SSE 4.6 mph - N/A   Scattered Clouds
1:13 PM 8.6 °F -2.6 °F 1.4 °F 73% 30.17 in 10.0 mi SSE 6.9 mph - N/A Snow Light Snow
1:34 PM 10.4 °F -3.3 °F 1.4 °F 67% 30.15 in 10.0 mi SSE 10.4 mph - N/A   Overcast
1:54 PM 12.2 °F 1.7 °F 6.8 °F 79% 30.21 in 5.0 mi SSE 6.9 mph - N/A Snow Light Snow
2:13 PM 10.4 °F -2.4 °F 1.4 °F 67% 30.13 in 10.0 mi SSE 9.2 mph - N/A   Overcast
2:33 PM 10.4 °F -2.4 °F 1.4 °F 67% 30.13 in 10.0 mi SSE 9.2 mph - N/A   Overcast
2:53 PM 12.2 °F -1.0 °F 1.4 °F 62% 30.12 in 10.0 mi SSE 10.4 mph - N/A   Overcast
3:33 PM 12.2 °F -1.0 °F 3.2 °F 67% 30.11 in 10.0 mi SSE 10.4 mph - N/A   Overcast
3:54 PM 14.0 °F 2.0 °F 3.2 °F 62% 30.10 in 10.0 mi SE 9.2 mph - N/A   Overcast
4:13 PM 14.0 °F 2.9 °F 3.2 °F 62% 30.09 in 10.0 mi SSE 8.1 mph - N/A   Overcast
4:33 PM 15.8 °F 4.2 °F 3.2 °F 58% 30.09 in 10.0 mi SSE 9.2 mph - N/A   Overcast
4:53 PM 15.8 °F 4.2 °F 3.2 °F 58% 30.08 in 10.0 mi SSE 9.2 mph - N/A   Overcast
5:13 PM 14.0 °F 0.5 °F 3.2 °F 62% 30.07 in 10.0 mi SSE 11.5 mph 16.1 mph N/A   Mostly Cloudy
5:33 PM 12.2 °F -1.0 °F 3.2 °F 67% 30.07 in 10.0 mi SSE 10.4 mph - N/A   Scattered Clouds
5:53 PM 12.2 °F 0.7 °F 3.2 °F 67% 30.07 in 10.0 mi SSE 8.1 mph - N/A   Mostly Cloudy
6:13 PM 12.2 °F 4.3 °F 3.2 °F 67% 30.06 in 10.0 mi SSE 4.6 mph - N/A   Overcast
6:33 PM 12.2 °F 4.3 °F 3.2 °F 67% 30.07 in 10.0 mi SSE 4.6 mph - N/A   Overcast
6:54 PM 14.0 °F 1.2 °F 3.2 °F 62% 30.07 in 10.0 mi SSE 10.4 mph - N/A   Overcast
7:13 PM 12.2 °F 0.7 °F 3.2 °F 67% 30.06 in 10.0 mi SSE 8.1 mph - N/A   Overcast
7:33 PM 14.0 °F 1.2 °F 3.2 °F 62% 30.07 in 10.0 mi SSE 10.4 mph - N/A   Overcast
7:53 PM 14.0 °F 2.0 °F 3.2 °F 62% 30.06 in 10.0 mi SSE 9.2 mph - N/A   Overcast
8:13 PM 14.0 °F 1.2 °F 3.2 °F 62% 30.06 in 10.0 mi South 10.4 mph - N/A   Mostly Cloudy
8:33 PM 14.0 °F 2.0 °F 5.0 °F 67% 30.06 in 10.0 mi SSE 9.2 mph - N/A   Scattered Clouds
8:53 PM 14.0 °F 1.2 °F 5.0 °F 67% 30.05 in 10.0 mi SSE 10.4 mph - N/A   Mostly Cloudy
9:13 PM 14.0 °F 3.9 °F 5.0 °F 67% 30.06 in 10.0 mi SSE 6.9 mph - N/A   Mostly Cloudy
9:33 PM 14.0 °F 2.9 °F 5.0 °F 67% 30.05 in 10.0 mi South 8.1 mph 16.1 mph N/A   Scattered Clouds
9:53 PM 15.8 °F 7.2 °F 6.8 °F 68% 30.06 in 10.0 mi SSE 5.8 mph - N/A   Mostly Cloudy
10:13 PM 15.8 °F 3.4 °F 5.0 °F 62% 30.05 in 10.0 mi SSE 10.4 mph - N/A   Overcast
10:33 PM 14.0 °F 3.9 °F 5.0 °F 67% 30.06 in 10.0 mi SSE 6.9 mph - N/A   Scattered Clouds
10:53 PM 14.0 °F 2.0 °F 5.0 °F 67% 30.05 in 10.0 mi SSE 9.2 mph - N/A   Mostly Cloudy
11:13 PM 14.0 °F 8.2 °F 5.0 °F 67% 30.06 in 10.0 mi SSE 3.5 mph - N/A   Mostly Cloudy
11:33 PM 14.0 °F 3.9 °F 5.0 °F 67% 30.06 in 10.0 mi SSE 6.9 mph - N/A   Scattered Clouds
11:53 PM 14.0 °F 6.5 °F 5.0 °F 67% 30.06 in 10.0 mi SSE 4.6 mph - N/A   Scattered Clouds